Location: Coed Ely
(51.5661°N, 3.4150°W)
Time: 01:35:21
(UTC+00:00)

Envisat - Pass Details

Date: 28 January 2021
Orbit: 764 x 766 km, 98.1° (Epoch: 28 February)

Event Time Altitude Azimuth Distance (km) Brightness Sun altitude
Rises 17:20:25 0° 177° (S) 3,222 6.5 -4.2°
Reaches altitude 10° 17:22:46 10° 182° (S) 2,300 5.9 -4.5°
Maximum altitude 17:27:44 54° 260° (W) 928 4.0 -5.3°
Drops below altitude 10° 17:32:44 10° 338° (NNW) 2,316 5.5 -6.0°
Sets 17:35:07 0° 343° (NNW) 3,247 6.2 -6.3°
